Powrót do katalogu

STARLINK-32391

AktywnyŁącznośćVLEO
NORAD 61855·PAYLOAD·🇺🇸 United States

Wystrzelony Nov 7, 2024 z Cape Canaveral Space Force Station

Loading…

Następne Przeloty (najbliższe 24 godziny)

TLE

ŚwieżeSource: CelesTrak SupGP

Epoka: Sep 15, 2026, 02:29 UTC

1 61855C 24202L   26258.10395833 -.00022869  00000+0 -82847-3 0  2588
2 61855  42.9993 248.1053 0001149 263.8215 256.0484 15.27584370    10

Śledź STARLINK-32391 w czasie rzeczywistym z AllMySat

Download on the App Store